{"data":{"norad_id":67203,"intl_designator":"2025-304M","name":"STARLINK-36224","alt_names":[],"object_type":"PAYLOAD","status":"ACTIVE","operator":null,"country":"US","launch_date":"2025-12-17","launch_site_code":"AFWTR","launch_vehicle":null,"mission":null,"orbit_class":"UNKNOWN","rcs_meters":null,"size_class":null,"mass_kg":null,"dimensions":null,"purposes":["comms"],"wikipedia_slug":null,"has_3d_model":false,"image_url":null,"decayed_at":null,"tle_current":{"epoch":"2026-05-24T23:51:37.192608Z","epoch_age_seconds":79079,"freshness":"FRESH","line1":"1 67203U 25304M   26144.99418047  .00003620  00000+0  31094-3 0  9991","line2":"2 67203  70.0014 342.0896 0002515 265.0201  95.0671 14.98339360 25318","mean_motion":14.9833936,"eccentricity":0.0002515,"inclination_deg":70.0014,"raan_deg":342.0896,"arg_perigee_deg":265.0201,"mean_anomaly_deg":95.0671,"bstar":0.00031094,"rev_number":2531,"period_min":96.106398753351,"perigee_km":570.27897983477,"apogee_km":573.77491229964,"semimajor_km":6950.1639460672,"source":"CELESTRAK","updated_at":"2026-05-25T13:38:21.509889Z"}}}